St. Paul Lake Elmo, MN

12:51 PM CST on November 22, 2019 (GMT -0600)
St. Paul Lake Elmo

Weather History for K21D - September, 2019

Change the Weather History Date:

Thursday, September 19, 2019

  Actual Average (WUND) Record (WUND)
Temperature  
Mean Temperature 70 °F -  
Max Temperature 80 °F - - (-1)
Min Temperature 59 °F - - (-1)
Cooling Degree Days 4    
Growing Degree Days 20 (Base 50)    
Moisture  
Dew Point 64 °F    
Average Humidity 85    
Maximum Humidity 100    
Minimum Humidity 51    
Precipitation  
Precipitation 0.03 in - - ()
Sea Level Pressure  
Sea Level Pressure 30.00 in    
Wind  
Wind Speed 1 mph (SE)    
Max Wind Speed 5 mph    
Max Gust Speed -    
Visibility 6 miles    
Events Fog    
Averages and records for this station are not official NWS values.
T = Trace of Precipitation, MM = Missing Value Source: NWS Daily Summary

Daily Weather History Graph

Daily Weather History Graph

Search for Another Location

Airport or City:

Astronomy

Sep. 19, 2019 Rise Set
Actual Time 6:54 AM CDT 7:15 PM CDT
Civil Twilight 6:25 AM CDT 7:44 PM CDT
Nautical Twilight 5:50 AM CDT 8:18 PM CDT
Astronomical Twilight 5:14 AM CDT 8:54 PM CDT
Moon 10:10 PM CDT (9/19) 12:11 PM CDT (9/19)
Length of Visible Light 13h 19m
Length of Day
12h 20m
Waning Gibbous, 74% of the Moon is Illuminated
Sep 19
Waning Gibbous
Sep 21
Last Quarter
Sep 28
New
Oct 5
First Quarter
Oct 13
Full

Hourly Weather History & Observations

Time (CDT) Temp. Heat Index Dew Point Humidity Pressure Visibility Wind Dir Wind Speed Gust Speed Precip Events Conditions
12:15 AM 64.4 °F - 64.4 °F 100% 29.97 in 0.2 mi North - - N/A Fog Fog
12:16 AM 64.4 °F - 64.4 °F 100% 29.97 in 0.2 mi North - - N/A Fog Fog
12:36 AM 64.4 °F - 64.4 °F 100% 29.97 in 0.2 mi North - - N/A Fog Fog
12:55 AM 62.6 °F - 62.6 °F 100% 29.97 in 0.2 mi North - - N/A Fog Fog
12:56 AM 62.6 °F - 62.6 °F 100% 29.97 in 0.2 mi North - - N/A Fog Fog
1:17 AM 62.6 °F - 62.6 °F 100% 29.97 in 0.2 mi North - - N/A Fog Fog
1:35 AM 64.4 °F - 64.4 °F 100% 29.97 in 0.2 mi North - - N/A Fog Fog
1:36 AM 64.4 °F - 64.4 °F 100% 29.97 in 0.2 mi North - - N/A Fog Fog
1:55 AM 60.8 °F - 60.8 °F 100% 29.97 in 0.2 mi North - - N/A Fog Fog
2:15 AM 60.8 °F - 60.8 °F 100% 29.97 in 0.2 mi North - - N/A Fog Fog
2:35 AM 60.8 °F - 60.8 °F 100% 29.97 in 0.2 mi North - - N/A Fog Fog
2:36 AM 60.8 °F - 60.8 °F 100% 29.97 in 0.2 mi North - - N/A Fog Fog
2:56 AM 60.8 °F - 60.8 °F 100% 29.96 in 0.2 mi North - - N/A Fog Fog
3:15 AM 59.0 °F - 59.0 °F 100% 29.95 in 0.2 mi North - - N/A Fog Fog
3:16 AM 59.0 °F - 59.0 °F 100% 29.95 in 0.2 mi North - - N/A Fog Fog
3:55 AM 59.0 °F - 59.0 °F 100% 29.96 in 0.2 mi North - - N/A Fog Fog
4:18 AM 60.8 °F - 60.8 °F 100% 29.94 in 0.2 mi North - - N/A Fog Fog
4:35 AM 60.8 °F - 60.8 °F 100% 29.95 in 0.2 mi North - - N/A Fog Fog
4:36 AM 60.8 °F - 60.8 °F 100% 29.95 in 0.2 mi North - - N/A Fog Fog
4:55 AM 60.8 °F - 60.8 °F 100% 29.96 in 0.5 mi North - - N/A Fog Fog
5:16 AM 59.0 °F - 59.0 °F 100% 29.96 in 1.8 mi North - - N/A   Overcast
5:35 AM 60.8 °F - 60.8 °F 100% 29.96 in 5.0 mi North - - N/A   Scattered Clouds
5:36 AM 59.0 °F - 59.0 °F 100% 29.96 in 7.0 mi North - - N/A   Scattered Clouds
5:59 AM 60.8 °F - 60.8 °F 100% 29.96 in 1.5 mi North - - N/A   Scattered Clouds
6:15 AM 59.0 °F - 59.0 °F 100% 29.97 in 4.0 mi North - - N/A   Scattered Clouds
6:35 AM 59.0 °F - 59.0 °F 100% 29.99 in 7.0 mi North - - N/A   Scattered Clouds
6:36 AM 59.0 °F - 59.0 °F 100% 30.00 in 3.0 mi North - - N/A   Scattered Clouds
6:58 AM 60.8 °F - 60.8 °F 100% 30.03 in 0.5 mi North - - N/A Fog Fog
7:15 AM 60.8 °F - 60.8 °F 100% 30.03 in 2.0 mi North - - N/A   Mostly Cloudy
7:16 AM 60.8 °F - 60.8 °F 100% 30.03 in 3.0 mi North - - N/A   Scattered Clouds
7:55 AM - - - N/A% - - North - - N/A   Unknown
8:15 AM - - - N/A% - - North - - N/A   Unknown
8:16 AM - - - N/A% - - North - - N/A   Unknown
8:39 AM 64.4 °F - 64.4 °F 100% 30.01 in 3.0 mi Calm Calm - 0.03 in   Clear
8:56 AM 66.2 °F - 66.2 °F 100% 30.01 in 4.0 mi Calm Calm - 0.03 in   Clear
9:15 AM 68.0 °F - 68.0 °F 100% 30.02 in 7.0 mi Calm Calm - N/A   Clear
9:35 AM 68.0 °F - 68.0 °F 100% 30.02 in 7.0 mi Calm Calm - N/A   Clear
9:36 AM 68.0 °F - 68.0 °F 100% 30.02 in 7.0 mi Calm Calm - N/A   Clear
9:55 AM 71.6 °F - 68.0 °F 88% 30.02 in 10.0 mi Calm Calm - N/A   Clear
9:59 AM 71.6 °F - 68.0 °F 88% 30.02 in 10.0 mi Calm Calm - N/A   Clear
10:17 AM 71.6 °F - 66.2 °F 83% 30.02 in 7.0 mi Calm Calm - N/A   Clear
10:36 AM 73.4 °F - 68.0 °F 83% 30.03 in 7.0 mi Calm Calm - N/A   Clear
10:55 AM 73.4 °F - 66.2 °F 78% 30.03 in 10.0 mi Calm Calm - N/A   Clear
10:56 AM 73.4 °F - 66.2 °F 78% 30.03 in 7.0 mi Calm Calm - N/A   Clear
11:15 AM 73.4 °F - 66.2 °F 78% 30.04 in 7.0 mi Calm Calm - N/A   Clear
11:38 AM 77.0 °F - 66.2 °F 69% 30.03 in 5.0 mi Calm Calm - N/A   Haze
11:57 AM 77.0 °F - 68.0 °F 74% 30.04 in 10.0 mi Calm Calm - N/A   Clear
12:16 PM 77.0 °F - 64.4 °F 65% 30.03 in 7.0 mi SSE 3.5 mph - N/A   Clear
12:35 PM 77.0 °F - 64.4 °F 65% 30.02 in 7.0 mi Calm Calm - N/A   Clear
12:36 PM 77.0 °F - 64.4 °F 65% 30.02 in 7.0 mi Calm Calm - N/A   Clear
12:55 PM 78.8 °F - 66.2 °F 65% 30.02 in 10.0 mi Calm Calm - N/A   Clear
12:59 PM 78.8 °F - 64.4 °F 61% 30.02 in 10.0 mi Calm Calm - N/A   Clear
1:17 PM 78.8 °F - 64.4 °F 61% 30.01 in 10.0 mi Calm Calm - N/A   Clear
1:36 PM 78.8 °F - 64.4 °F 61% 30.00 in 7.0 mi Calm Calm - N/A   Clear
1:55 PM 78.8 °F - 64.4 °F 61% 30.00 in 10.0 mi Calm Calm - N/A   Clear
1:56 PM 78.8 °F - 64.4 °F 61% 30.00 in 10.0 mi Calm Calm - N/A   Clear
2:15 PM 80.6 °F 82.3 °F 64.4 °F 58% 30.00 in 10.0 mi Calm Calm - N/A   Clear
2:20 PM 80.6 °F 82.3 °F 64.4 °F 58% 30.00 in 10.0 mi SE 3.5 mph - N/A   Clear
2:37 PM 80.6 °F 82.7 °F 66.2 °F 61% 30.00 in 10.0 mi Calm Calm - N/A   Clear
2:56 PM 80.6 °F 82.3 °F 64.4 °F 58% 30.00 in 7.0 mi Calm Calm - N/A   Clear
3:15 PM 80.6 °F 82.3 °F 64.4 °F 58% 29.99 in 7.0 mi Calm Calm - N/A   Clear
3:16 PM 80.6 °F 82.3 °F 64.4 °F 58% 29.99 in 7.0 mi Calm Calm - N/A   Clear
3:35 PM 80.6 °F 81.5 °F 60.8 °F 51% 29.99 in 10.0 mi Calm Calm - N/A   Clear
3:58 PM 80.6 °F 81.8 °F 62.6 °F 54% 29.99 in 7.0 mi Calm Calm - N/A   Clear
4:17 PM 80.6 °F 81.8 °F 62.6 °F 54% 29.99 in 10.0 mi Calm Calm - N/A   Clear
4:35 PM 80.6 °F 81.8 °F 62.6 °F 54% 29.99 in 7.0 mi Calm Calm - N/A   Clear
4:36 PM 80.6 °F 82.3 °F 64.4 °F 58% 29.99 in 7.0 mi SE 3.5 mph - N/A   Clear
4:55 PM 80.6 °F 82.7 °F 66.2 °F 61% 29.99 in 10.0 mi ESE 3.5 mph - N/A   Clear
5:18 PM 80.6 °F 82.7 °F 66.2 °F 61% 29.99 in 7.0 mi SSE 4.6 mph - N/A   Clear
5:37 PM 78.8 °F - 66.2 °F 65% 29.99 in 7.0 mi ESE 4.6 mph - N/A   Clear
5:56 PM 78.8 °F - 68.0 °F 69% 29.99 in 7.0 mi Calm Calm - N/A   Clear
6:15 PM 78.8 °F - 64.4 °F 61% 29.99 in 10.0 mi Calm Calm - N/A   Clear
6:35 PM 78.8 °F - 66.2 °F 65% 29.99 in 10.0 mi Calm Calm - N/A   Clear
6:39 PM 77.0 °F - 66.2 °F 69% 30.00 in 7.0 mi SSE 3.5 mph - N/A   Clear
6:58 PM 77.0 °F - 66.2 °F 69% 30.00 in 7.0 mi SSE 3.5 mph - N/A   Clear
7:15 PM 73.4 °F - 68.0 °F 83% 30.00 in 7.0 mi Calm Calm - N/A   Clear
7:35 PM 69.8 °F - 68.0 °F 94% 30.01 in 7.0 mi Calm Calm - N/A   Clear
7:36 PM 69.8 °F - 68.0 °F 94% 30.01 in 7.0 mi Calm Calm - N/A   Clear
7:55 PM 69.8 °F - 68.0 °F 94% 30.01 in 10.0 mi Calm Calm - N/A   Clear
7:56 PM 69.8 °F - 68.0 °F 94% 30.01 in 10.0 mi Calm Calm - N/A   Clear
8:18 PM 68.0 °F - 68.0 °F 100% 30.02 in 10.0 mi Calm Calm - N/A   Clear
8:36 PM 68.0 °F - 68.0 °F 100% 30.03 in 10.0 mi Calm Calm - N/A   Clear
8:55 PM 66.2 °F - 66.2 °F 100% 30.03 in 10.0 mi SE 3.5 mph - N/A   Clear
8:56 PM 66.2 °F - 66.2 °F 100% 30.03 in 10.0 mi SE 3.5 mph - N/A   Clear
9:15 PM 68.0 °F - 64.4 °F 88% 30.03 in 10.0 mi Calm Calm - N/A   Clear
9:16 PM 68.0 °F - 64.4 °F 88% 30.03 in 10.0 mi Calm Calm - N/A   Clear
9:35 PM 68.0 °F - 66.2 °F 94% 30.04 in 10.0 mi SSE 3.5 mph - N/A   Clear
9:40 PM 68.0 °F - 68.0 °F 100% 30.04 in 10.0 mi SSE 3.5 mph - N/A   Clear
9:57 PM 66.2 °F - 64.4 °F 94% 30.04 in 10.0 mi Calm Calm - N/A   Clear
10:16 PM 68.0 °F - 68.0 °F 100% 30.04 in 10.0 mi Calm Calm - N/A   Clear
10:35 PM 68.0 °F - 68.0 °F 100% 30.04 in 10.0 mi Calm Calm - N/A   Clear
10:55 PM 68.0 °F - 66.2 °F 94% 30.04 in 10.0 mi SSE 3.5 mph - N/A   Clear
11:19 PM 66.2 °F - 66.2 °F 100% 30.04 in 10.0 mi Calm Calm - N/A   Clear
11:36 PM 66.2 °F - 66.2 °F 100% 30.04 in 10.0 mi Calm Calm - N/A   Clear
11:55 PM 66.2 °F - 66.2 °F 100% 30.04 in 3.0 mi Calm Calm - N/A   Scattered Clouds